Weather History for Lancaster, OH

Change the Weather History Date:

Sunday, February 3, 2013

  Actual Average Record
Temperature  
Mean Temperature 22 °F -  
Max Temperature 26 °F 37 °F 58 °F (1983)
Min Temperature 19 °F 19 °F -6 °F (1971)
Degree Days  
Heating Degree Days 42    
Moisture  
Dew Point 17 °F    
Average Humidity 79    
Maximum Humidity 93    
Minimum Humidity 58    
Precipitation  
Precipitation 0.01 in - - ()
Sea Level Pressure  
Sea Level Pressure 29.96 in    
Wind  
Wind Speed 6 mph (West)    
Max Wind Speed 15 mph    
Max Gust Speed 23 mph    
Visibility 4 miles    
Events Snow    
Averages and records for this station are not official NWS values.
T = Trace of Precipitation, MM = Missing Value Source: NWS Daily Summary

Daily Weather History Graph

Daily Weather History Graph

Search for Another Location

Airport:

Trip Planner

Search our weather history database for the weather conditions in past years. The results will help you decide how hot, cold, wet, or windy it might be!

Date:

Astronomy

Feb. 03, 2013 Rise Set
Actual Time 7:36 AM EST 5:53 PM EST
Civil Twilight 7:08 AM EST 6:21 PM EST
Nautical Twilight 6:35 AM EST 6:53 PM EST
Astronomical Twilight 6:04 AM EST 7:25 PM EST
Moon 1:02 AM EST (2/3) 11:29 AM EST (2/3)
Length of Visible Light 11h 13m
Length of Day
10h 16m
Waning Gibbous, 49% of the Moon is Illuminated
Feb 3
Waning Gibbous
Feb 10
New
Feb 17
First Quarter
Feb 25
Full
Mar 4
Last Quarter

Hourly Weather History & Observations

Time (EST) Temp. Windchill Dew Point Humidity Pressure Visibility Wind Dir Wind Speed Gust Speed Precip Events Conditions
12:53 AM 26.1 °F 20.5 °F 21.0 °F 81% 30.01 in 6.0 mi West 4.6 mph - 0.00 in   Haze
1:06 AM 26.6 °F 20.0 °F 21.2 °F 80% 29.97 in 6.0 mi West 5.8 mph - 0.00 in Snow Light Snow
1:38 AM 26.6 °F - 21.2 °F 80% 29.96 in 5.0 mi Calm Calm - 0.00 in   Overcast
1:53 AM 26.1 °F 21.9 °F 21.9 °F 84% 29.99 in 6.0 mi WNW 3.5 mph - 0.00 in   Overcast
2:05 AM 26.6 °F 20.0 °F 21.2 °F 80% 29.95 in 5.0 mi West 5.8 mph - N/A   Overcast
2:53 AM 26.1 °F - 21.0 °F 81% 29.98 in 7.0 mi Calm Calm - N/A   Overcast
3:31 AM 24.8 °F 20.5 °F 21.2 °F 86% 29.93 in 6.0 mi WNW 3.5 mph - N/A   Overcast
3:40 AM 24.8 °F 19.1 °F 21.2 °F 86% 29.93 in 7.0 mi West 4.6 mph - N/A   Overcast
3:53 AM 25.0 °F 18.1 °F 21.0 °F 85% 29.96 in 8.0 mi West 5.8 mph - N/A   Overcast
4:38 AM 24.8 °F - 21.2 °F 86% 29.91 in 2.5 mi Calm Calm - 0.00 in Snow Light Snow
4:41 AM 24.8 °F 20.5 °F 21.2 °F 86% 29.91 in 1.8 mi WSW 3.5 mph - 0.00 in Snow Light Snow
4:53 AM 24.1 °F 18.2 °F 21.0 °F 88% 29.94 in 1.8 mi WSW 4.6 mph - 0.00 in Snow Light Snow
5:07 AM 24.8 °F 19.1 °F 19.4 °F 80% 29.90 in 4.0 mi WSW 4.6 mph - 0.00 in Snow Light Snow
5:18 AM 24.8 °F 19.1 °F 19.4 °F 80% 29.90 in 2.5 mi West 4.6 mph - 0.00 in Snow Light Snow
5:39 AM 21.2 °F 16.4 °F 19.4 °F 93% 29.90 in 4.0 mi WSW 3.5 mph - 0.00 in Snow Light Snow
5:53 AM 21.9 °F - 19.0 °F 89% 29.93 in 3.0 mi Calm Calm - 0.00 in Snow Light Snow
6:13 AM 21.2 °F 16.4 °F 19.4 °F 93% 29.90 in 2.5 mi West 3.5 mph - 0.00 in Snow Light Snow
6:29 AM 21.2 °F - 19.4 °F 93% 29.90 in 3.0 mi Calm Calm - 0.00 in Snow Light Snow
6:53 AM 23.0 °F - 19.9 °F 88% 29.92 in 4.0 mi Calm Calm - 0.00 in Snow Light Snow
7:53 AM 24.1 °F - 19.9 °F 84% 29.93 in 4.0 mi Calm Calm - 0.00 in   Overcast
8:07 AM 24.8 °F - 19.4 °F 80% 29.89 in 4.0 mi Calm Calm - N/A   Overcast
8:29 AM 24.8 °F 20.5 °F 19.4 °F 80% 29.89 in 2.5 mi Variable 3.5 mph - 0.00 in Snow Light Snow
8:32 AM 24.8 °F 20.5 °F 19.4 °F 80% 29.90 in 1.8 mi West 3.5 mph - 0.00 in Snow Light Snow
8:46 AM 24.8 °F 19.1 °F 19.4 °F 80% 29.90 in 2.0 mi West 4.6 mph - 0.00 in Snow Light Snow
8:53 AM 24.1 °F 18.2 °F 19.9 °F 84% 29.93 in 2.0 mi WNW 4.6 mph - 0.00 in Snow Light Snow
9:03 AM 23.0 °F 14.7 °F 19.4 °F 86% 29.90 in 1.8 mi NW 6.9 mph - 0.00 in Snow Light Snow
9:20 AM 23.0 °F 15.8 °F 19.4 °F 86% 29.90 in 1.0 mi NNW 5.8 mph - 0.00 in Snow Light Snow
9:35 AM 23.0 °F 15.8 °F 19.4 °F 86% 29.90 in 0.8 mi NW 5.8 mph - 0.01 in Snow Light Snow
9:42 AM 23.0 °F 14.7 °F 19.4 °F 86% 29.90 in 1.0 mi West 6.9 mph - 0.01 in Snow Light Snow
9:53 AM 21.0 °F 8.6 °F 16.0 °F 81% 29.94 in 0.8 mi WNW 12.7 mph - 0.01 in Snow Light Snow
10:03 AM 21.2 °F 9.5 °F 15.8 °F 80% 29.91 in 1.0 mi West 11.5 mph - 0.00 in Snow Light Snow
10:10 AM 21.2 °F 8.9 °F 14.0 °F 74% 29.91 in 1.2 mi West 12.7 mph - 0.00 in Snow Light Snow
10:17 AM 21.2 °F 10.1 °F 14.0 °F 74% 29.91 in 1.0 mi West 10.4 mph - 0.00 in Snow Light Snow
10:21 AM 21.2 °F 8.3 °F 14.0 °F 74% 29.91 in 1.8 mi West 13.8 mph - 0.00 in Snow Light Snow
10:28 AM 21.2 °F 10.1 °F 14.0 °F 74% 29.91 in 2.0 mi West 10.4 mph 19.6 mph 0.00 in Snow Light Snow
10:36 AM 21.2 °F 10.1 °F 12.2 °F 68% 29.91 in 3.0 mi West 10.4 mph - 0.00 in Snow Light Snow
10:53 AM 19.9 °F 6.2 °F 10.9 °F 68% 29.95 in 9.0 mi West 15.0 mph - 0.00 in   Overcast
11:53 AM 19.9 °F 6.7 °F 12.9 °F 74% 29.96 in 5.0 mi West 13.8 mph - N/A   Haze
12:14 PM 21.2 °F 10.1 °F 14.0 °F 74% 29.92 in 2.0 mi West 10.4 mph - 0.00 in Snow Light Snow
12:22 PM 21.2 °F 9.5 °F 14.0 °F 74% 29.91 in 2.0 mi West 11.5 mph 19.6 mph 0.00 in Snow Light Snow
12:31 PM 21.2 °F 8.9 °F 14.0 °F 74% 29.91 in 2.5 mi West 12.7 mph 18.4 mph 0.00 in Snow Light Snow
12:40 PM 21.2 °F 9.5 °F 14.0 °F 74% 29.92 in 3.0 mi West 11.5 mph 18.4 mph 0.00 in Snow Light Snow
12:53 PM 21.0 °F 8.6 °F 15.1 °F 78% 29.95 in 4.0 mi West 12.7 mph 18.4 mph 0.00 in Snow Light Snow
1:53 PM 21.0 °F 9.3 °F 14.0 °F 74% 29.96 in 3.0 mi West 11.5 mph - 0.00 in Snow Light Snow
2:53 PM 21.0 °F 10.6 °F 12.9 °F 71% 29.97 in 7.0 mi West 9.2 mph - 0.00 in   Overcast
3:53 PM 21.0 °F 8.1 °F 10.0 °F 63% 30.01 in 10.0 mi West 13.8 mph - N/A   Overcast
4:22 PM 21.2 °F 8.3 °F 8.6 °F 58% 29.99 in 10.0 mi WNW 13.8 mph 23.0 mph N/A   Overcast
4:53 PM 19.9 °F 7.9 °F 10.0 °F 65% 30.04 in 10.0 mi West 11.5 mph 20.7 mph N/A   Overcast
5:53 PM 19.9 °F 11.1 °F 10.9 °F 68% 30.05 in 9.0 mi WNW 6.9 mph - N/A   Overcast
6:53 PM 19.9 °F 9.3 °F 12.0 °F 71% 30.07 in 10.0 mi West 9.2 mph - N/A   Overcast
7:53 PM 19.9 °F 9.3 °F 12.9 °F 74% 30.09 in 10.0 mi West 9.2 mph - 0.00 in   Overcast
8:53 PM 19.9 °F 12.1 °F 12.9 °F 74% 30.10 in 7.0 mi West 5.8 mph - 0.00 in Snow Light Snow
9:53 PM 21.0 °F 12.4 °F 14.0 °F 74% 30.12 in 8.0 mi West 6.9 mph - 0.00 in   Overcast
10:32 PM 21.2 °F 13.6 °F 15.8 °F 80% 30.07 in 3.0 mi West 5.8 mph - 0.00 in Snow Light Snow
10:43 PM 21.2 °F 12.6 °F 15.8 °F 80% 30.07 in 4.0 mi West 6.9 mph - 0.00 in Snow Light Snow
10:53 PM 21.0 °F 12.4 °F 15.1 °F 78% 30.12 in 6.0 mi West 6.9 mph - 0.00 in   Haze
11:46 PM 21.2 °F 12.6 °F 12.2 °F 68% 30.08 in 9.0 mi WNW 6.9 mph - 0.00 in   Overcast
11:53 PM 21.0 °F 9.9 °F 12.0 °F 68% 30.12 in 10.0 mi WNW 10.4 mph 16.1 mph 0.00 in   Overcast